sat.trackr.live / text

‹ back to catalog

STARLINK-3847

NORAD 52333 · 2022-045C

PAYLOAD ACTIVE UNKNOWN

§ Identity

Operator
Country
US
Launch date
2022-04-29
Launch site
AFETR
Launch vehicle
Mass (kg)
RCS (m²)

Purposes: comms

External: N2YO · Heavens-Above · Gunter

§ Orbital elements

Epoch: 2026-09-19T18:04:19.135200Z

Period
94.01 min
Inclination
53.1608°
Eccentricity
0.0001133
Mean motion
15.31702499 rev/d
Perigee alt
470.0 km
Apogee alt
471.5 km
Semi-major
6,848.9 km
B*
2.7682e-5
RAAN
43.4175°
Arg perigee
77.7310°
Mean anomaly
282.3819°
Rev number
24,512

§ Raw data

STARLINK-38471 52333U 22045C   26262.75299925  .00000494  00000+0  27682-4 0  99902 52333  53.1608  43.4175 0001133  77.7310 282.3819 15.31702499245126

JSON: /api/v1/satellites/52333 · /tle

For live sub-satellite position, see the globe view (requires WebGL).

§ Visibility from observer

Set your observer location to see the next 7 days of passes ≥ 10°. The values pass through the URL so the page stays shareable.

No JS? Fill the form by hand. The geolocation button needs JavaScript.